Location: Poughquag
(41.6090°N, 73.6820°W)
Time: 12:41:28
(UTC-04:00)

Tiros 1 despin weight - Pass Details

Date: 03 June 2020
Orbit: 593 x 642 km, 48.2° (Epoch: 07 July)

Event Time Altitude Azimuth Distance (km) Brightness Sun altitude
Rises 16:59:00 0° 286° (WNW) 2,871 ? 35.7°
Reaches altitude 10° 17:02:00 10° 266° (W) 1,952 ? 35.1°
Maximum altitude 17:04:50 17° 227° (SW) 1,546 ? 34.6°
Drops below altitude 10° 17:07:40 10° 187° (S) 1,928 ? 34.1°
Sets 17:10:37 0° 166° (SSE) 2,819 ? 33.5°
